STARLINK-36418, 67422

Orbit data source: Space-Track

STARLINK-36418, 67422 is a payload satellite owned by SpaceX/Seattle (US) in LEO that was launched on Mon, 12 Jan 2026 UTC via an FALCON 9 launch vehicle from the Air Force Eastern Test Range (AFETR). Payload-class satellites include a variety of spacecraft equipped with specific instruments for various scientific and technological missions. These include communications satellites like Starlink; space stations such as the ISS; scientific satellites like the Hubble; Earth observation satellites from companies like Planet Labs, Umbra, and HawkEye 360; GPS; miniature CubeSats for education and research; and military/defense satellites.

Loading next visibility...
Identifier
67422, 2026-005U
Orbit
LEO
Country
Flag of USUS
Related business
Manufacturer
SpaceX/Seattle
Mission
Operational Commercial Communications
Bus & Motor
STARLINK V2MO, Unknown motor
Mass
575 kg wet, ~530 kg dry
Launch date (UTC)
2026-01-12 (5 months ago)
Launch vehicle
FALCON 9
Launch site
Air Force Eastern Test Range (AFETR)
Object type
Payload
Rocket body
Debris
Shape & HBR
Box + 2 Pan, 17.7 m
Radar Cross Section
36.964 m², Large (>1 m²)

Expand to show TLE details & history
Last TLE update: 21 hours ago

TLE from 21 hours ago
0 STARLINK-36418
1 67422U 26005U   26170.97760698  .00016408  00000-0  60427-3 0  9993
2 67422  43.0017  20.0112 0000918 274.5002  85.5745 15.27590082 24348
Epoch: 2026-06-19T23:27Z
TLE epoch observation values (Epoch: 2026-06-19T23:27:45.243Z)
Latitude
0.00001°
Longitude
119.87386°
Altitude
482.746 km
Speed
7.626 km/s
True Right ascension
01h 20m 02s
True Declination
0° 00' 00"
Sunlit
Object was in daylight at epoch
Visualization orbit readout
Latitude
Unknown
Longitude
Unknown
Altitude
Unknown
Speed
Unknown
Apparent Right ascension
Unknown
Apparent Declination
Unknown
Sunlit
N/A
Visualization observer readout
Local Sidereal Time
07:14:16
Azimuth
Unknown
Elevation
Unknown
Doppler factor
Unknown
Orbital elements
Apogee altitude
485.594 km
Perigee altitude
484.334 km
Semi-major axis
6,863.101 km
Eccentricity
0.00009
Inclination
43.0017°
RAAN
20.0112°
Arg. of periapsis
274.5002°
True anomaly
85.58499°
Mean anomaly
85.5745°
Eccentric anomaly
85.57974°
Mean motion
3.81736 °/min
Orbital period
94.31 mins
BSTAR
0.00060427
Loading maneuver chart data...
Computing Atmospheric mass density...
Loading historical data...
Loading historical data...
Loading historical data...
Loading historical data...
Loading historical data...
Loading historical data...
Loading historical data...

Documentation

Showing up to 5 results
|